Погода в Локсе

Эстония     59°34′51″N   25°43′09″E
темп.,
°C
ветер,
м/с
пор.,
м/с
влажн.,
%
обл.,
%
осадки,
мм/ч
давл.,
гПа
погр.,
м
13 июня, вс
вс1300:00+13ююз2498100 0.9 1000178
03:00+12зсз2499100 1.9 1000165
06:00+12зюз2599100 3.4 1000207
09:00+12з3699100 5.1 1002287
12:00+12сз51096100 1.0 1005544
15:00+12сз51191100 1.4 1008656
18:00+13ссз3873100 0.0 1009445
21:00+14зюз36745 0.0 1011278
14 июня, пн
пн1400:00+12сз512704 0.0 1013419
03:00+10зсз49825 0.0 1015268
06:00+10зсз36800 0.0 1016219
09:00+14зсз3554100 0.0 1018539
12:00+16зсз3444100 0.0 1018760
15:00+18сз344161 0.0 10161180
18:00+19юз254274 0.0 10151472
21:00+17юз495421 0.0 1013455
15 июня, вт
вт1500:00+14ю51458100 0.0 1011451
03:00+14ююз61661100 0.0 1009554
06:00+13юз51292100 0.9 1008586
09:00+14юз4992100 1.9 1009658
12:00+18з68550 0.1 10091416
15:00+17зсз795774 0.1 10101052
18:00+16з67590 0.0 1011931
21:00+13з510702 0.0 1012415
16 июня, ср
ср1600:00+10з412791 0.0 1014278
03:00+10з23864 0.0 101664
06:00+11зсз23806 0.0 1017108
09:00+14сз235627 0.0 1019633
12:00+17сз45445 0.0 1020937
15:00+18сз35355 0.0 1020830
18:00+19сз243537 0.0 1020576
21:00+15з23565 0.0 102160
17 июня, чт
чт1700:00+11юз237736 0.0 102329
03:00+11ююз3479100 0.0 102362
06:00+13ююз3768100 0.0 1024175
09:00+18юз365030 0.0 1024466
12:00+21зюз46445 0.0 10241157
15:00+22зсз35457 0.0 10241423
18:00+20сз35530 0.0 10241028
21:00+16ссз11732 0.0 102423